Showing default

NIMBUS 2, 2173

Orbit data source: Space-Track

NIMBUS 2, 2173 is a payload satellite owned by GSFC (US) in SSO that was launched on Sun, 15 May 1966 UTC via a THOR SLV-2A AGENA B launch vehicle from the Air Force Western Test Range (AFWTR). Payloads include a variety of satellites, spacecraft, and rockets equipped with specific instruments for various scientific and technological missions. These include communications satellites like Starlink; space stations such as the ISS; scientific satellites like the Hubble; Earth observation satellites from companies like Planet Labs, Umbra, and HawkEye 360; GPS; miniature CubeSats for education and research; and military/defense satellites.

Loading next visibility...
NIMBUS 2 details
Identifier
2173, 1966-040A
Orbit
SSO
Last TLE update5 hours ago
Origin
Flag of USGSFC (US)
ManufacturerGE/MSVD
MissionNon-operational Civil Weather
Bus & MotorNIMBUS, Unknown motor
Mass414 kg wet, 414 kg dry
Launch date (UTC)
1966-05-15 (59 years ago)
Launch vehicle
THOR SLV-2A AGENA B
Launch site
Air Force Western Test Range (AFWTR)
Object type
Payload
Rocket body
Debris
Shape & HBRCone + 2 Pan, 3.35 m
Radar Cross Section2.947 m², Large (>1 m²)

Expand to show TLE details & history

TLE from 5 hours ago
0 NIMBUS 2
1  2173U 66040A   25023.51365639  .00000028  00000-0  15244-3 0  9998
2  2173 100.5765 222.1052 0055657  50.1969   4.6833 13.33682347856150
Epoch: 2025-01-23T12:19Z
Definitive object data (Epoch: 2025-01-23T12:19:39.912Z)
Latitude53.66741°
Longitude-100.53167°
Altitude1,099.903 km
Speed7.328 km/s
True Right ascension13h 49m 53s
True Declination53° 30' 38"
Sunlit
Object was in daylight at TLE epoch
Visualization TLE readout
Latitude-43.70716°
Longitude-75.46217°
Altitude1,152.353 km
Speed7.275 km/s
Apparent Right ascension11h 28m 28s
Apparent Declination-67° 00' 54"
Sunlit
Object is in daylight
Visualization observer readout
Local Sidereal Time18:26:49
Azimuth210.444° SW
Elevation-41.771°
Doppler factor1
Orbital elements
Apogee altitude1,172.065 km
Perigee altitude1,088.486 km
Semi-major axis7,508.413 km
Eccentricity0.0055657
Inclination100.5765°
RAAN222.1052°
Arg. of periapsis50.1969°
True anomaly4.73574°
Mean anomaly4.6833°
Eccentric anomaly4.70948°
Mean motion3.33596 °/min
BSTAR0.00015244
Orbital period107.91 mins
Loading maneuver chart data...
Loading historical data...
Loading historical data...
Loading historical data...
Loading historical data...
Loading historical data...
Loading historical data...
Loading historical data...

NIMBUS 2 Visibility forecast

Observer location: undefined°, undefined

Span
Click to sort rows by Start time (UTC) header in descending order
Start Az.
Max El. time (UTC)
Max El. Az.
Max El.
End time (UTC)
End Az.
11 mins2025-01-24 01:16:08.146Z34.752° NE2025-01-24 01:22:08.146Z109.297° ESE32.102°2025-01-24 01:27:08.146Z163.29° S
10 mins2025-01-24 03:03:08.146Z353.833° N2025-01-24 03:08:08.146Z289.962° WNW31.356°2025-01-24 03:13:08.146Z234.985° WSW
8 mins2025-01-24 11:38:08.146Z99.76° ESE2025-01-24 11:41:08.146Z65.759° ENE22.894°2025-01-24 11:46:08.146Z11.599° NNE
11 mins2025-01-24 13:22:08.146Z181.502° SSW2025-01-24 13:27:08.146Z246.951° WSW40.347°2025-01-24 13:33:08.146Z334.428° NNW
|